Tracking 18852 objects as of 23-Nov-2017
HD Live streaming from Space Station
objects crossing your sky now

FENGYUN 1C DEB

Track FENGYUN 1C DEB now!
10-day predictions


NORAD ID: 38816
Int'l Code: 1999-025EVG
Perigee: 713.2 km
Apogee: 869.4 km
Inclination: 98.9 °
Period: 100.5 minutes
Semi major axis: 7162 km
RCS: 0.0094 m2 (small)
Launch date: May 10, 1999
Source: People's Republic of China (PRC)
Launch site: Taiyaun Space Center, China (TSC)

Note: This is SATELLITE DEBRIS
aabbcc
Your satellite tracking list
Your tracking list is empty




NASA's NSSDC Master Catalog

Two Line Element Set (TLE):
1 38816U 99025EVG 17325.84459233  .00001913  00000-0  68043-3 0  9995
2 38816  98.8789 350.2268 0109053  15.8457 344.6094 14.32275701368774
Source of the keplerian elements: AFSPC